Flag for Germany Weather past 2 weeks in Munich, Bavaria, Germany

Now
50 °F

Cool.


Feels Like: 50 °F
Forecast: 47 / 71 °F
Wind: 1 mph from North

Location: Munich / Franz Josef Strauss Airport

Current Time: Sep 17, 2014 at 2:11:22 AM

Latest Report: Sep 17, 2014 at 1:20 AM


Visibility: 1 mi

Pressure: 29.98 "Hg

Humidity: 100%

Dew point: 50 °F

Location of MunichLocation

Historic Weather in Munich — Graph

°F

Munich temperature yesterday

Maximum temperature yesterday: 64 °F (at 2:50 PM)
Minimum temperature yesterday: 50 °F (at 12:20 AM)
Average temperature yesterday: 58 °F

Past Weeks' High & Low Weather Summary

 TemperatureHumidityPressure
High77 °F (Sep 6, 3:20 PM)100% (Sep 3, 12:50 AM)30.15 "Hg (Sep 3, 12:50 AM)
Low48 °F (Sep 10, 6:20 AM)47% (Sep 7, 3:50 PM)29.92 "Hg (Sep 6, 2:50 PM)
Average60 °F87%30.03 "Hg
* Reported Sep 2 12:20 AM — Sep 17 12:20 AM, Munich, Weather by CustomWeather, © 2014

Note: Actual official high and low records may vary slightly from our data, if they occured in-between our weather recording intervals... More about our weather records

Advertising

Munich weather history for previous 24 hours

 ConditionsComfort  
Time TempWeatherWind HumidityBarometerVisibility
12:20 AM
Sep 17
50 °FCool.1 mph100%29.98 "Hg1 mi
11:50 PM
Sep 16
52 °FCool.2 mph94%30.01 "Hg2 mi
11:20 PM52 °FCool.1 mph100%30.01 "Hg2 mi
10:50 PM52 °FCool.1 mph100%30.01 "Hg4 mi
10:20 PM54 °FLight fog.2 mph94%30.01 "Hg5 mi
9:50 PM54 °FCool.1 mph100%30.01 "Hg5 mi
9:20 PM55 °FLight fog.1 mph94%30.01 "Hg6 mi
8:50 PM55 °FFog.No wind94%30.01 "HgN/A
8:20 PM59 °FFog.1 mph88%30.01 "HgN/A
7:50 PM61 °FSunny.2 mph83%30.01 "Hg10 mi
7:20 PM63 °FSunny.2 mph83%30.01 "Hg10 mi
6:50 PM64 °FSunny.2 mph78%30.01 "Hg10 mi
6:20 PM64 °FPassing clouds.3 mph78%30.01 "HgN/A
5:50 PM64 °FSunny.2 mph78%30.01 "Hg10 mi
5:20 PM64 °FPassing clouds.3 mph78%30.01 "HgN/A
4:50 PM64 °FPassing clouds.5 mph78%30.01 "HgN/A
4:20 PM64 °FScattered clouds.7 mph78%30.01 "HgN/A
3:50 PM64 °FScattered clouds.5 mph78%30.01 "HgN/A
3:20 PM64 °FPartly sunny.7 mph73%30.01 "HgN/A
2:50 PM64 °FPartly sunny.5 mph78%30.04 "HgN/A
2:20 PM63 °FPartly sunny.6 mph77%30.04 "HgN/A
1:50 PM63 °FPartly sunny.3 mph83%30.04 "HgN/A
1:20 PM63 °FPartly sunny.6 mph83%30.04 "HgN/A
12:50 PM61 °FPartly sunny.5 mph88%30.04 "HgN/A
12:20 PM61 °FPartly sunny.2 mph88%30.04 "HgN/A
11:50 AM61 °FBroken clouds.3 mph88%30.04 "HgN/A
11:20 AM59 °FBroken clouds.2 mph94%30.04 "Hg6 mi
10:50 AM59 °FBroken clouds.5 mph94%30.04 "Hg4 mi
10:20 AM59 °FFog.5 mph94%30.04 "Hg3 mi
9:50 AM57 °FFog.3 mph100%30.04 "Hg2 mi
9:20 AM57 °FDrizzle. Fog.2 mph100%30.04 "Hg2 mi
8:50 AM57 °FDrizzle. Fog.2 mph94%30.04 "Hg1 mi
8:20 AM55 °FCool.1 mph100%30.04 "Hg1 mi
7:50 AM55 °FSnow. Cloudy.1 mph100%30.04 "Hg1 mi
7:20 AM55 °FSnow. Overcast.1 mph100%30.04 "Hg1 mi
6:50 AM55 °FFog.2 mph100%30.01 "Hg2 mi
6:20 AM55 °FFog.2 mph94%30.01 "Hg2 mi
5:50 AM55 °FFog.1 mph94%30.01 "Hg3 mi
5:20 AM55 °FFog.1 mph94%30.01 "Hg3 mi
4:50 AM55 °FFog.2 mph100%30.01 "Hg3 mi
4:20 AM55 °FOvercast.3 mph100%30.01 "Hg4 mi
3:50 AM55 °FOvercast.5 mph100%30.01 "Hg4 mi
3:20 AM54 °FOvercast.5 mph100%30.01 "Hg4 mi
2:50 AM52 °FPassing clouds.2 mph100%30.01 "Hg4 mi
2:20 AM54 °FPassing clouds.5 mph94%30.01 "Hg4 mi
Weather by CustomWeather, © 2014

See weather overviewHow to use our weather pages